Location: Unspecified
(35.7250°N, 0.0000°E)
Time: 10:21:54
(UTC+00:00)

Vanguard 1 Rocket - Pass Details

Date: 17 June 2019
Orbit: 651 x 4225 km, 34.3° (Epoch: 15 July)

Event Time Altitude Azimuth Distance (km) Brightness Sun altitude
Rises 13:38:25 0° 186° (S) 8,356 12.5 65.6°
Reaches altitude 10° 13:50:46 10° 163° (SSE) 6,763 12.0 63.2°
Maximum altitude 13:57:32 12° 144° (SE) 6,057 11.6 61.9°
Drops below altitude 10° 14:03:21 10° 124° (SE) 5,716 11.4 60.8°
Sets 14:11:01 0° 98° (E) 5,873 11.3 59.3°
